Regional Weather Roundup
Issued by NWS

Home | Current Version | Previous Version | Graphics & Text | Print | Product List | Glossary On
Versions: 1 2 3 4 5 6 7 8 9 10 11 12 13 14 15 16 17 18 19 20 21 22 23 24 25 26 27
000
ASUS45 KCYS 270510
RWRWY

WYOMING REGIONAL WEATHER ROUNDUP
NATIONAL WEATHER SERVICE CHEYENNE WY
1100 PM MDT SUN MAR 26 2017

NOTE:  "FAIR" INDICATES FEW OR NO CLOUDS BELOW 12,000 FEET
WITH NO SIGNIFICANT WEATHER AND/OR OBSTRUCTIONS TO VISIBILITY.

WYZ001-270600-
YELLOWSTONE NATIONAL PARK

CITY           SKY/WX    TMP DP  RH WIND       PRES   REMARKS
LK YELLOWSTONE   N/A     28  26  92 CALM      29.94F
W YELLOWSTONE  NOT AVBL

$$
WYZ002>013-054>058-071-098>099-270600-
NORTHERN WYOMING

CITY           SKY/WX    TMP DP  RH WIND       PRES   REMARKS
JACKSON        CLOUDY    34  32  93 SW7       29.95F WCI  28
CODY           FAIR      47  21  35 W3        29.87F
GREYBULL       MOCLDY    47  32  56 SE3       29.83F
WORLAND        FAIR      47  35  63 SE13      29.82F
SHERIDAN       FAIR      41  33  73 SW7       29.85F
BUFFALO        FAIR      43  31  62 SW5       29.89F
GILLETTE       FAIR      39  34  82 S9        29.90S WCI  33
HULETT         FAIR      34  30  86 S8        29.92F WCI  27
NEWCASTLE      FAIR      34  34 100 CALM      29.95S

$$
WYZ014>020-022>026-101>103-270600-
CENTRAL WYOMING

CITY           SKY/WX    TMP DP  RH WIND       PRES   REMARKS
BIG PINEY      CLOUDY    33  25  72 W3        29.97F
PINEDALE       CLOUDY    30  23  74 NW3       29.97F
DUBOIS         CLOUDY    32  21  64 NW10      29.92F WCI  24
LANDER         FAIR      45  21  38 SW9       29.87F
RIVERTON       FAIR      43  23  45 NW16      29.88S
CASPER         FAIR      39  33  79 CALM      29.90F
DOUGLAS        FAIR      36  32  85 SE7       29.93S WCI  30

$$
WYZ021-027>030-104>119-270600-
SOUTHERN WYOMING

CITY           SKY/WX    TMP DP  RH WIND       PRES   REMARKS
EVANSTON       CLOUDY    34  24  67 SW7       29.98F WCI  28
KEMMERER         N/A     32  27  80 W5        29.98S WCI  27
FORT BRIDGER   FAIR      34  26  71 SW7       30.01F WCI  28
ROCK SPRINGS   MOCLDY    38  25  59 SW7       29.99S WCI  33
DIXON            N/A     33  25  73 CALM      30.00F
RAWLINS        FAIR      37  20  50 W7        29.96S WCI  32
SARATOGA       FAIR      30  25  80 S6        29.98S WCI  24
LARAMIE        FAIR      31  29  92 S9        29.97R WCI  23
CHEYENNE       MOCLDY    36  33  89 S3        29.98S
TORRINGTON     FAIR      36  32  85 SE3       29.95R
PINE BLUFFS    FAIR      28  28 100 W6        29.99R WCI  22

$$




USA.gov is the U.S. government's official web portal to all federal, state and local government web resources and services.